Location: Hamburg
(53.5500°N, 10.0000°E)
Time: 21:13:22
(UTC+02:00)

ISS - Visible Passes

Search period start: 30 July 2014 00:00
Search period end: 09 August 2014 00:00
Orbit: 411 x 419 km, 51.6° (Epoch: 30 July)

Date Brightness Start Highest point End Pass type
(mag) Time Alt. Az. Time Alt. Az. Time Alt. Az.
30 Jul -1.0 01:12:46 15° E 01:12:46 15° E 01:13:33 10° E visible
30 Jul -3.3 02:45:37 31° WSW 02:46:59 61° S 02:50:19 10° E visible
30 Jul -3.1 04:20:15 10° W 04:23:32 51° SSW 04:26:49 10° ESE visible
31 Jul -3.1 01:58:28 52° SSE 01:58:28 52° SSE 02:01:30 10° E visible
31 Jul -3.2 03:31:26 10° W 03:34:45 58° S 03:38:05 10° ESE visible
01 Aug -1.4 01:11:24 20° E 01:11:24 20° E 01:12:40 10° E visible
01 Aug -3.3 02:44:16 26° WSW 02:45:58 63° S 02:49:18 10° ESE visible
01 Aug -2.6 04:19:20 10° W 04:22:25 34° SSW 04:25:31 10° SE visible
02 Aug -3.3 01:57:26 60° SSE 01:57:26 60° SSE 02:00:29 10° E visible
02 Aug -3.0 03:30:27 10° W 03:33:40 43° SSW 03:36:53 10° SE visible
03 Aug -0.8 01:11:18 12° E 01:11:18 12° E 01:11:39 10° E visible
03 Aug -3.2 02:44:17 45° SW 02:44:53 52° SSW 02:48:11 10° ESE visible
03 Aug -1.9 04:18:34 10° W 04:21:10 21° SSW 04:23:45 10° SSE visible
03 Aug -1.9 22:40:43 10° SSW 22:43:16 20° SSE 22:45:01 14° ESE visible
04 Aug -2.0 00:16:15 10° WSW 00:18:02 27° SW 00:18:02 27° SW visible
04 Aug -2.0 03:33:23 24° S 03:33:23 24° S 03:35:23 10° SSE visible
04 Aug -1.5 21:52:40 10° S 21:54:36 15° SE 21:56:33 10° ESE visible
04 Aug -3.0 23:27:32 10° SW 23:30:44 43° SSE 23:32:12 26° ESE visible
05 Aug -1.4 01:03:55 10° W 01:05:06 20° W 01:05:06 20° W visible
05 Aug -2.6 22:38:54 10° SW 22:41:57 34° SSE 22:45:01 10° E visible
06 Aug -3.3 00:15:05 10° WSW 00:18:18 62° S 00:18:18 62° S visible
06 Aug -2.2 21:50:23 10° SSW 21:53:12 26° SSE 21:56:03 10° E visible
06 Aug -3.3 23:26:16 10° WSW 23:29:33 58° S 23:31:13 26° ESE visible
07 Aug -1.4 01:02:49 10° W 01:04:04 21° W 01:04:04 21° W visible
07 Aug -3.1 22:37:28 10° WSW 22:40:43 50° SSE 22:43:59 10° E visible
08 Aug -3.1 00:13:57 10° W 00:16:51 54° SW 00:16:51 54° SW visible
08 Aug -2.8 21:48:44 10° SW 21:51:54 41° SSE 21:55:04 10° E visible
08 Aug -3.3 23:25:05 10° W 23:28:24 64° S 23:29:34 36° ESE visible
